Wind_Speed
107 107 108 108 108 108 107 106 104 102 101 100 98 98 98 100 103 106 109 113 117 120 122 123 124 126 128 130 132 132 132 131 130 129 128 127 125 124 123 123 122 121 121 120 120 121 121 122 123 124 125 126 126 126 126 126 125 123 122 121 120 119
110 111 111 112 112 111 110 109 107 106 104 103 102 100 99 99 100 103 106 109 113 117 121 124 126 127 128 130 132 134 135 136 136 136 135 134 133 131 131 130 129 128 127 127 126 126 125 125 124 124 124 125 126 127 128 129 129 128 127 126 125 124
113 114 115 115 115 114 113 111 110 109 107 106 104 103 102 101 101 102 104 107 110 113 116 120 124 127 130 131 133 134 135 137 139 140 141 140 140 139 138 137 136 135 134 134 133 132 132 132 131 131 130 129 128 128 128 128 129 129 129 129 129 129
116 117 118 118 118 117 115 113 112 111 110 109 108 106 105 104 103 103 104 105 107 110 113 116 119 122 126 129 133 135 137 138 139 141 142 144 145 145 144 144 143 142 141 141 140 139 139 138 138 138 138 137 136 135 134 133 132 132 131 131 131 131
119 120 121 121 120 119 117 116 115 114 113 112 110 109 108 107 106 106 106 106 107 108 111 113 116 118 121 123 127 131 135 138 140 142 143 144 146 147 148 148 149 149 149 148 148 147 146 146 145 144 144 143 143 143 142 142 141 139 138 137 136 135
123 123 123 123 121 120 119 118 117 115 114 113 111 110 110 109 109 108 108 108 109 109 110 111 113 116 118 120 122 124 127 131 135 139 142 145 147 149 150 150 151 152 152 153 153 153 153 153 152 151 151 150 149 149 148 148 148 147 146 145 143 142
125 125 125 124 123 122 120 119 117 115 113 111 110 109 109 109 109 109 109 110 110 110 111 111 113 114 116 118 119 121 123 124 127 130 134 138 142 146 149 152 153 154 154 155 155 156 157 157 157 157 157 157 156 156 155 154 153 152 152 151 150 149
127 127 126 125 123 122 120 119 117 114 112 109 108 107 107 107 107 108 108 109 109 110 111 111 112 113 115 116 118 119 121 122 123 124 126 128 131 135 140 144 148 151 154 156 157 158 158 159 159 160 160 160 161 161 160 160 159 158 158 157 156 155
127 127 125 124 122 120 119 117 115 112 109 107 106 105 105 104 104 105 105 106 107 108 109 110 111 112 114 115 116 118 119 120 121 122 123 124 125 127 129 132 136 140 144 147 151 154 156 158 160 161 162 162 163 163 163 162 162 162 161 161 161 160
127 125 124 122 120 118 115 113 110 107 105 104 103 102 102 101 101 102 102 103 104 105 106 107 109 110 112 113 115 116 117 118 119 120 121 122 123 124 125 126 128 130 132 135 138 142 145 149 152 156 159 161 163 164 165 164 164 163 163 162 162 162
125 123 121 119 116 113 110 107 105 103 102 101 100 99 98 98 99 99 99 100 101 102 103 104 105 107 108 110 111 113 114 116 117 119 120 121 122 123 123 124 125 126 127 129 130 132 134 136 139 142 146 151 155 158 161 162 163 164 163 163 163 162
122 119 116 113 110 108 106 103 102 100 99 98 97 96 96 96 96 96 97 97 98 98 99 100 101 103 104 106 107 109 110 112 113 115 116 118 119 120 121 122 123 124 125 125 126 127 128 129 131 133 135 138 141 143 146 149 152 154 156 158 159 161
116 112 109 107 106 104 102 101 99 98 97 97 96 95 94 94 94 94 94 94 94 95 95 96 98 99 101 102 104 105 106 107 109 110 112 113 115 116 117 118 119 121 122 122 123 123 124 126 127 129 130 131 132 133 134 135 137 139 142 144 147 150
109 107 105 103 102 101 99 98 97 96 95 95 94 93 93 93 93 92 92 92 92 93 93 94 95 96 97 99 100 101 102 104 105 106 108 109 110 111 112 113 114 115 117 118 118 118 120 122 124 125 126 126 127 128 128 128 128 129 131 132 134 136
105 103 102 101 100 99 98 97 96 95 94 93 93 93 93 93 93 92 92 92 92 92 92 93 93 94 95 96 97 98 99 100 101 103 104 105 107 107 108 109 111 112 113 113 114 114 115 117 119 121 121 121 122 124 124 123 122 122 123 125 127 128
102 101 100 99 98 98 98 97 96 95 94 93 93 93 93 93 93 93 93 93 93 93 93 93 93 93 93 94 94 95 96 97 98 99 100 101 101 103 104 105 107 108 109 110 111 111 113 115 116 117 117 118 119 119 120 119 117 117 117 119 120 122
100 99 98 98 98 98 97 97 96 95 94 94 94 93 93 93 92 92 92 92 92 92 92 92 92 92 93 93 93 93 94 94 95 95 96 96 97 98 99 100 101 102 103 105 107 108 109 111 113 114 114 115 116 117 116 115 114 114 114 114 116 118
99 98 98 98 97 97 96 96 95 95 94 93 93 92 92 91 91 91 91 91 91 91 91 92 92 92 92 92 92 93 93 93 93 93 93 93 94 94 95 96 96 97 98 100 101 102 102 104 106 108 109 111 112 113 113 112 112 112 112 113 114 115
99 99 98 97 97 96 96 95 94 94 93 92 92 91 90 90 89 89 90 90 90 90 91 91 91 91 91 92 92 92 92 93 93 92 92 91 92 93 93 93 94 95 96 97 98 98 97 98 101 102 103 104 106 107 107 108 109 110 110 111 112 112
99 98 97 97 96 96 95 94 93 93 92 92 92 91 90 90 89 89 88 88 89 89 89 90 90 90 90 91 91 91 92 92 92 91 91 91 91 91 92 92 93 94 95 95 95 95 95 96 98 99 99 100 101 101 101 102 103 104 105 106 108 109
99 97 97 96 95 94 94 93 93 92 92 92 91 91 90 89 89 88 88 87 88 88 88 88 88 89 89 89 90 90 91 91 91 90 90 90 90 90 91 92 92 93 93 94 93 94 94 95 96 97 98 98 98 98 98 98 98 99 100 101 102 103
97 96 95 95 94 94 94 93 92 92 91 91 90 90 89 89 88 88 88 87 87 87 87 87 87 87 88 88 89 89 90 90 90 90 90 90 90 89 90 92 92 91 91 92 92 93 94 94 95 95 96 97 97 96 96 95 95 96 96 96 97 98
96 95 95 94 94 94 94 93 92 91 91 90 89 89 89 89 88 88 87 87 86 86 86 86 86 86 86 87 87 88 88 88 88 88 89 89 89 90 90 91 90 89 89 90 91 92 93 94 93 94 95 96 96 95 94 94 93 93 93 94 95 95
95 94 94 94 94 94 94 93 92 91 90 90 89 88 88 87 87 86 86 85 85 85 84 84 84 84 85 85 85 85 86 86 86 86 86 87 87 89 89 89 88 87 87 89 91 92 92 93 92 92 93 94 94 94 93 92 92 92 91 91 92 93
94 94 94 94 93 93 93 92 91 90 89 89 88 87 86 86 86 85 85 85 84 84 83 83 83 84 83 83 83 83 84 84 84 83 84 85 86 86 86 85 85 85 85 87 89 90 91 91 91 91 92 92 92 92 92 91 91 91 90 90 90 91
93 93 93 92 92 92 91 91 90 89 87 87 86 85 85 85 85 85 84 84 83 83 83 83 83 83 83 83 82 82 83 83 82 82 83 84 84 83 82 83 83 82 83 85 87 89 90 89 89 89 89 89 89 90 90 90 89 89 89 89 89 90
91 91 91 91 91 91 90 89 88 86 85 85 84 84 84 84 84 84 84 83 82 82 82 82 82 82 82 82 81 81 81 81 81 81 83 83 82 81 80 81 81 81 81 83 85 87 88 88 88 88 87 86 86 87 87 87 87 87 87 87 87 88
89 89 89 89 89 88 88 86 85 84 83 83 83 83 83 83 83 83 83 82 81 80 80 79 80 79 79 79 79 78 78 78 78 79 80 80 79 78 78 78 78 79 80 81 84 86 87 87 88 87 86 85 84 85 85 85 85 85 85 84 84 85
86 86 86 86 86 85 84 83 82 82 82 82 82 82 82 82 82 81 81 80 79 78 78 78 77 77 77 76 76 75 75 75 75 76 76 76 75 75 75 75 74 75 76 78 81 82 83 85 85 84 83 83 82 83 83 83 83 83 82 82 82 82
84 84 84 84 83 82 82 81 81 81 81 81 81 80 80 80 79 79 79 78 78 77 77 77 76 76 75 75 74 74 74 73 74 73 73 72 71 71 71 71 71 71 73 74 77 78 79 81 81 80 79 79 79 79 79 79 79 79 79 79 79 79
83 82 82 82 81 81 81 81 80 80 79 79 78 78 77 77 77 77 77 77 76 75 75 75 75 74 74 74 73 73 73 73 73 72 71 71 70 69 68 67 68 69 70 72 73 75 76 77 77 77 75 75 75 75 75 75 75 74 74 75 75 75
81 81 81 80 80 80 80 80 79 78 77 77 77 76 76 76 76 76 76 76 75 75 74 74 74 73 73 72 72 72 72 73 73 71 70 70 70 68 67 65 65 66 68 70 71 73 74 75 75 74 74 73 73 73 72 72 71 71 71 71 71 72
81 81 80 79 79 79 79 78 77 76 76 76 75 75 75 74 74 75 75 75 75 74 74 73 73 72 72 71 71 70 70 72 73 72 70 68 67 68 67 65 64 65 67 68 70 71 73 73 73 72 72 72 72 72 71 70 70 69 68 68 67 68
81 81 80 79 79 78 78 77 76 75 76 76 75 74 74 74 73 73 74 74 74 74 73 73 72 71 70 70 70 70 69 69 70 72 72 69 67 66 66 65 64 65 66 67 68 69 71 72 71 71 70 70 70 70 70 70 69 68 67 66 65 65
81 81 80 79 78 77 77 76 75 75 76 75 75 74 73 73 72 72 72 72 72 72 72 72 71 70 69 69 69 69 69 68 68 69 71 71 69 67 65 64 64 64 66 67 67 67 68 68 69 69 68 68 68 68 67 68 68 68 66 65 64 64
81 81 80 78 77 77 76 75 74 74 75 74 73 73 73 72 71 71 71 70 70 70 70 70 69 68 67 67 67 67 67 67 66 66 68 69 70 69 67 64 63 62 63 65 67 67 66 65 65 65 65 65 65 65 65 65 65 65 65 64 63 63
80 79 78 77 76 76 75 74 73 73 73 73 73 73 72 71 71 70 70 69 69 69 68 68 66 65 65 66 66 66 66 65 65 65 66 66 67 67 68 66 65 63 62 62 63 64 64 63 62 62 61 61 61 62 63 63 63 62 63 63 62 61
78 77 76 75 75 74 74 73 73 72 73 73 73 72 72 71 70 69 69 68 67 67 66 65 64 63 63 64 65 65 64 64 64 64 64 64 63 64 64 65 65 64 63 62 60 60 60 60 59 58 58 58 58 58 60 61 61 60 60 60 60 60
Wind_Direction
292 292 291 291 290 290 290 289 288 286 285 283 280 277 274 272 269 266 263 261 259 258 257 257 256 256 255 255 254 254 254 253 253 252 252 252 252 252 252 252 252 252 252 253 253 253 253 253 253 253 252 252 252 252 253 253 254 254 254 254 254 254
292 292 292 292 291 291 290 290 289 287 286 284 282 279 276 273 271 269 267 265 262 260 259 258 257 257 256 255 255 254 254 254 253 253 253 253 252 252 252 252 252 253 253 253 253 253 253 253 253 253 253 253 253 253 252 253 253 253 253 253 253 253
292 292 292 292 292 291 291 290 289 288 286 284 282 280 278 275 272 270 268 267 265 264 262 261 259 258 257 256 256 255 255 254 254 254 254 253 253 253 253 253 253 253 253 253 253 253 253 253 253 253 253 253 253 253 253 253 253 253 253 253 253 253
292 292 292 292 292 291 290 289 288 287 286 284 283 281 279 276 274 271 269 267 266 265 265 264 262 261 259 258 257 256 256 255 255 254 254 254 254 254 254 254 253 253 253 253 253 254 254 254 254 254 253 253 253 253 253 253 254 254 254 254 253 253
292 292 292 292 291 290 290 289 288 287 286 284 283 282 280 277 275 273 271 269 268 266 266 265 264 264 263 261 260 259 258 257 256 255 255 255 255 255 255 254 254 254 254 254 254 254 254 254 254 254 254 254 254 254 254 254 254 254 254 255 255 255
292 292 292 291 291 290 289 288 287 286 285 284 283 281 280 278 276 274 273 271 270 268 267 266 265 265 264 264 263 262 261 259 258 257 256 256 256 256 256 255 255 255 255 255 255 255 255 255 255 255 255 255 255 255 255 255 255 255 255 255 255 255
292 292 292 291 291 290 289 288 287 286 284 283 281 280 278 277 276 274 273 272 271 270 269 268 267 266 265 265 265 264 264 263 261 260 259 258 257 257 256 256 256 256 256 256 256 256 256 256 256 256 256 256 256 256 256 256 256 256 256 256 256 256
292 292 292 291 290 290 289 288 287 285 284 282 280 279 277 276 275 274 273 273 272 271 270 269 268 267 267 266 266 265 265 265 264 263 263 262 261 260 259 258 257 257 257 257 257 257 257 257 257 257 257 257 257 257 257 257 256 256 256 256 256 256
292 292 291 290 290 289 288 287 286 285 284 282 281 279 278 277 276 275 274 273 272 272 271 270 270 269 268 268 267 266 266 266 265 265 265 264 263 263 262 261 260 259 259 258 258 258 257 257 257 257 258 258 258 258 258 258 257 257 257 257 257 257
292 291 291 290 289 289 288 287 286 285 284 283 282 280 279 279 277 276 275 274 273 272 271 270 270 269 269 268 268 267 267 267 267 266 266 265 265 264 264 263 262 262 261 261 260 259 259 258 258 258 258 258 258 258 258 258 258 258 258 258 258 258
292 291 291 290 289 288 287 287 286 285 284 283 282 281 280 279 278 277 276 275 274 273 272 271 271 270 269 269 268 268 267 267 267 267 266 266 266 265 265 265 264 264 263 263 262 262 261 260 260 259 259 258 258 258 259 259 259 259 259 259 259 259
291 291 290 289 289 288 287 287 286 285 284 283 282 281 280 279 278 277 276 275 275 274 273 273 272 271 271 270 269 269 268 267 267 267 266 266 266 266 266 266 265 265 265 264 264 263 263 263 262 262 261 260 260 260 260 260 260 260 260 260 260 260
290 289 289 288 288 287 287 286 286 285 284 283 283 282 281 280 279 278 277 277 276 275 274 273 273 272 271 270 270 269 269 269 268 268 267 267 266 266 266 266 266 266 265 265 265 265 264 264 264 263 263 262 262 261 261 260 260 260 260 260 260 260
289 289 289 288 288 288 287 286 286 285 285 284 284 283 283 282 281 280 279 278 277 276 274 273 272 271 270 270 269 269 269 268 268 268 268 268 267 267 267 267 266 266 266 266 266 265 265 265 264 264 264 263 263 262 262 261 261 261 261 261 261 260
289 289 289 289 289 288 288 287 287 287 286 286 286 285 285 284 284 283 282 281 279 278 277 275 274 273 272 271 270 269 269 268 268 267 267 267 267 267 267 267 267 267 267 267 266 266 266 265 265 265 265 265 264 264 264 263 262 262 261 261 261 261
290 290 290 289 289 289 288 288 289 288 288 288 287 287 286 286 285 284 283 282 281 280 279 278 277 276 275 274 273 272 271 270 269 268 267 267 267 266 266 266 266 266 266 266 266 266 266 266 266 266 266 266 266 265 265 265 264 264 263 262 262 262
289 289 289 289 289 289 289 289 289 289 289 288 288 287 286 285 284 283 283 282 281 281 280 279 278 277 277 276 275 274 273 272 271 271 270 269 269 268 267 267 267 266 266 266 265 265 265 265 265 265 266 266 266 266 266 266 266 265 265 264 263 262
289 289 289 289 289 290 290 290 289 289 288 288 287 286 285 284 284 283 283 282 282 281 280 280 279 279 278 277 277 276 275 274 273 273 272 272 271 270 270 269 269 268 267 267 266 265 265 265 265 265 264 264 265 265 266 266 266 266 265 265 264 263
289 290 290 290 290 290 290 289 289 288 287 286 286 285 284 284 284 283 283 282 282 281 281 280 280 279 279 278 277 277 276 276 275 274 274 273 273 272 272 271 270 270 269 268 268 268 267 267 267 266 265 264 264 264 264 264 264 264 264 264 264 264
290 290 291 291 291 290 290 289 288 288 287 286 286 286 285 285 284 284 283 283 282 282 281 281 280 280 279 279 278 278 277 277 276 275 275 274 273 273 272 272 271 271 270 270 270 270 269 269 268 268 267 266 266 265 264 264 264 264 264 264 264 264
291 291 291 291 290 290 289 288 288 288 287 287 287 287 287 286 286 285 284 283 283 282 281 281 280 280 280 279 279 278 278 277 277 276 276 275 274 274 273 272 272 271 271 271 271 270 270 269 269 269 268 268 267 267 266 266 265 265 264 264 264 264
291 291 290 290 290 289 289 288 288 288 288 288 288 288 288 287 287 286 285 284 283 282 282 281 281 280 279 279 279 278 278 278 277 277 276 276 275 275 274 273 273 272 272 272 272 271 270 269 269 269 269 269 268 268 267 267 267 266 266 265 265 265
291 290 290 290 290 289 289 289 289 289 289 289 289 288 288 287 286 285 285 284 283 282 282 281 280 280 279 278 278 278 278 277 277 277 277 276 276 275 275 274 274 274 274 273 273 272 271 270 270 269 269 269 269 269 268 268 267 267 267 266 266 266
290 291 291 291 291 291 290 290 290 290 290 289 289 288 287 287 286 285 284 284 283 282 282 281 280 280 279 278 278 278 277 277 277 277 276 276 276 275 275 275 275 275 275 275 274 273 272 272 271 270 270 270 270 269 269 269 268 268 267 267 266 266
291 291 291 291 291 291 291 290 290 290 290 289 289 288 287 287 286 285 285 284 284 283 283 282 281 280 280 279 279 278 278 278 277 277 277 276 275 275 276 276 276 276 276 275 275 274 273 273 272 271 271 271 271 270 270 270 269 269 268 268 267 267
291 291 291 291 290 290 289 289 289 289 289 289 288 287 287 286 286 285 285 285 284 284 283 282 282 281 281 280 280 279 279 278 278 278 277 276 276 276 277 277 277 277 276 276 275 275 274 274 273 272 272 271 271 271 271 270 270 270 269 269 268 268
291 291 290 290 289 289 289 289 289 289 289 288 288 287 287 287 286 286 285 285 284 284 283 283 282 282 281 281 280 280 279 279 278 277 276 276 276 277 276 276 276 276 275 275 275 275 275 274 274 273 273 272 272 272 272 271 271 271 270 270 269 269
290 290 289 289 289 288 289 289 289 289 288 288 288 288 287 287 287 286 286 285 285 284 284 283 283 282 282 281 281 280 280 279 278 277 276 276 277 276 276 275 275 274 274 273 273 273 274 274 274 274 274 273 273 273 273 272 272 272 271 271 270 270
289 289 288 288 288 288 288 289 289 289 288 288 288 288 288 287 287 287 286 286 286 285 285 284 284 283 283 282 282 281 281 280 279 278 277 277 277 276 275 275 274 274 273 273 273 273 273 273 273 273 274 274 273 273 273 273 272 272 272 271 270 270
289 289 288 288 288 288 289 289 289 289 289 289 288 288 288 287 287 287 286 286 286 286 286 285 285 284 284 284 283 283 282 281 280 280 279 279 278 277 276 276 275 275 274 274 274 274 274 274 274 274 274 274 274 273 273 273 272 272 272 271 270 270
290 289 289 289 289 289 289 289 289 289 289 289 288 288 287 287 287 287 287 287 287 286 286 285 285 285 284 284 284 284 283 282 282 281 281 280 279 278 277 277 277 277 276 275 275 275 275 275 275 275 275 275 274 274 274 273 273 272 272 271 271 270
289 289 289 289 289 290 290 290 290 290 289 289 289 288 288 288 288 288 288 287 287 286 286 285 285 285 284 284 284 284 283 283 282 282 281 281 280 280 279 278 277 277 277 276 276 276 276 276 277 277 277 277 277 276 275 275 274 273 272 271 271 271
290 290 290 290 290 291 291 291 291 291 290 290 289 289 289 288 288 288 287 287 286 286 285 285 285 285 285 284 284 284 283 283 283 282 281 280 280 280 280 279 278 277 276 276 276 277 277 277 278 278 278 279 279 278 278 277 276 275 273 272 271 271
291 291 292 292 292 292 292 291 292 291 290 290 290 289 289 288 287 287 286 286 286 286 286 285 285 285 285 285 284 284 283 283 283 283 283 281 280 279 279 279 279 278 277 276 276 276 277 277 278 278 278 279 279 279 279 279 278 277 276 274 273 272
292 292 293 292 292 292 292 292 292 291 290 290 290 289 288 288 287 287 286 286 286 286 286 285 285 285 285 285 284 283 283 282 282 282 282 282 281 280 279 278 278 278 278 277 276 276 276 276 277 278 278 278 278 278 278 278 278 277 276 275 274 273
292 292 292 292 292 292 292 291 291 290 290 289 289 288 288 287 287 287 286 286 286 286 285 285 285 285 285 284 283 282 282 282 281 281 281 281 282 282 281 279 277 276 276 276 277 277 276 276 276 277 277 278 278 278 277 277 276 277 276 276 275 274
291 291 292 292 292 292 291 291 291 290 290 289 288 288 288 287 287 287 286 286 285 285 285 285 285 285 284 283 282 282 281 281 281 280 280 280 281 282 282 282 281 278 276 275 275 276 276 276 276 276 276 276 276 277 277 277 276 275 275 275 275 274
291 291 292 292 292 291 291 291 290 290 289 289 288 288 288 288 288 287 286 286 285 285 284 284 284 284 283 282 282 282 281 281 281 280 280 280 280 281 281 281 282 281 280 278 276 276 276 276 276 276 276 276 276 276 276 276 276 276 275 274 274 274
Height
10495 10493 10489 10487 10483 10480 10477 10474 10471 10469 10467 10465 10464 10464 10464 10462 10461 10460 10459 10458 10456 10454 10453 10452 10451 10451 10451 10452 10452 10453 10454 10454 10455 10456 10457 10458 10459 10459 10460 10460 10461 10461 10462 10463 10463 10464 10465 10466 10467 10469 10470 10472 10473 10474 10475 10477 10478 10480 10481 10482 10485 10488
10478 10475 10472 10469 10467 10463 10460 10457 10454 10452 10449 10447 10445 10444 10444 10443 10442 10440 10439 10438 10436 10435 10434 10432 10431 10431 10431 10431 10432 10433 10433 10435 10436 10436 10437 10439 10440 10441 10442 10443 10444 10444 10444 10445 10446 10446 10446 10447 10447 10448 10450 10451 10452 10454 10455 10457 10458 10461 10463 10463 10466 10469
10462 10459 10455 10452 10449 10446 10443 10440 10437 10434 10431 10428 10426 10424 10423 10422 10421 10420 10419 10418 10416 10414 10413 10412 10411 10411 10410 10411 10411 10412 10412 10414 10415 10416 10417 10418 10419 10421 10422 10423 10424 10425 10426 10426 10426 10427 10427 10428 10428 10429 10430 10431 10432 10433 10434 10436 10437 10440 10443 10445 10447 10448
10446 10442 10439 10435 10432 10429 10426 10423 10420 10416 10412 10408 10406 10404 10402 10401 10401 10400 10399 10398 10397 10395 10394 10392 10391 10391 10391 10391 10391 10391 10391 10392 10394 10395 10396 10397 10398 10400 10402 10403 10403 10404 10405 10406 10406 10406 10407 10408 10408 10409 10410 10412 10413 10414 10414 10416 10418 10420 10422 10424 10427 10429
10428 10425 10421 10417 10414 10411 10408 10405 10402 10398 10394 10390 10387 10384 10382 10381 10380 10379 10378 10378 10378 10377 10376 10374 10372 10371 10371 10370 10370 10370 10371 10371 10372 10373 10375 10375 10376 10377 10379 10380 10382 10382 10383 10384 10385 10385 10386 10387 10388 10389 10390 10390 10392 10393 10395 10396 10398 10401 10403 10405 10407 10409
10410 10406 10402 10399 10396 10392 10389 10386 10383 10380 10377 10373 10370 10367 10364 10362 10360 10358 10357 10357 10357 10357 10356 10355 10354 10352 10351 10350 10349 10349 10349 10350 10351 10351 10353 10354 10354 10355 10356 10357 10359 10360 10361 10361 10362 10363 10364 10365 10366 10368 10369 10369 10370 10372 10374 10375 10377 10380 10384 10386 10388 10390
10390 10386 10382 10379 10375 10372 10369 10365 10362 10360 10358 10355 10353 10350 10347 10343 10341 10339 10337 10337 10337 10337 10336 10335 10334 10333 10332 10330 10329 10328 10328 10328 10329 10330 10330 10331 10332 10333 10333 10334 10335 10337 10338 10339 10340 10340 10341 10342 10343 10345 10346 10347 10347 10349 10352 10354 10356 10358 10362 10366 10369 10371
10371 10367 10363 10358 10355 10351 10348 10344 10341 10339 10337 10335 10333 10331 10328 10325 10323 10321 10319 10319 10318 10317 10316 10315 10314 10314 10313 10312 10311 10309 10309 10308 10308 10309 10309 10310 10310 10311 10311 10312 10313 10314 10315 10317 10317 10318 10318 10319 10320 10321 10322 10323 10323 10325 10328 10331 10334 10337 10340 10344 10347 10350
10352 10348 10343 10339 10335 10332 10328 10325 10321 10319 10317 10315 10313 10311 10309 10307 10306 10304 10303 10301 10300 10298 10297 10296 10295 10294 10293 10292 10291 10290 10289 10289 10289 10289 10289 10289 10289 10290 10290 10291 10291 10292 10292 10293 10294 10295 10295 10297 10297 10297 10297 10298 10298 10300 10303 10307 10311 10314 10318 10322 10326 10329
10332 10327 10323 10319 10316 10312 10309 10306 10304 10301 10299 10296 10294 10292 10291 10289 10288 10286 10284 10283 10282 10280 10279 10278 10276 10275 10274 10272 10271 10270 10270 10269 10269 10269 10269 10268 10268 10269 10269 10269 10269 10270 10269 10269 10270 10271 10272 10273 10275 10275 10273 10272 10273 10274 10277 10281 10286 10290 10295 10300 10304 10308
10311 10307 10303 10300 10297 10293 10290 10288 10286 10284 10282 10279 10277 10276 10275 10273 10270 10268 10266 10265 10263 10262 10262 10260 10258 10257 10255 10254 10253 10252 10251 10251 10250 10249 10248 10247 10247 10247 10247 10247 10248 10248 10248 10248 10248 10248 10249 10251 10252 10252 10249 10248 10250 10251 10253 10258 10262 10267 10271 10276 10282 10286
10292 10288 10285 10282 10279 10276 10273 10271 10269 10267 10265 10262 10261 10260 10259 10257 10254 10252 10250 10248 10247 10246 10245 10243 10241 10239 10237 10235 10234 10233 10232 10232 10230 10229 10229 10228 10227 10226 10226 10227 10227 10226 10226 10227 10228 10228 10229 10229 10230 10228 10225 10225 10227 10229 10232 10236 10240 10245 10249 10253 10258 10262
10274 10271 10268 10266 10262 10260 10258 10255 10253 10251 10248 10246 10244 10244 10242 10240 10238 10237 10235 10233 10232 10231 10229 10227 10225 10222 10220 10217 10216 10215 10214 10213 10211 10210 10210 10209 10208 10207 10207 10207 10207 10206 10205 10205 10207 10209 10209 10208 10206 10203 10202 10205 10206 10207 10210 10215 10220 10223 10226 10230 10234 10239
10257 10255 10253 10250 10247 10245 10242 10239 10237 10235 10233 10231 10229 10228 10226 10223 10221 10220 10218 10217 10215 10214 10212 10210 10208 10205 10203 10201 10199 10198 10197 10195 10194 10192 10191 10190 10189 10189 10189 10189 10188 10187 10186 10185 10187 10189 10189 10188 10184 10180 10181 10184 10184 10184 10186 10193 10200 10205 10207 10209 10212 10215
10242 10240 10237 10234 10231 10228 10225 10222 10221 10220 10218 10217 10214 10212 10209 10206 10204 10201 10199 10198 10196 10194 10193 10191 10190 10188 10186 10184 10183 10181 10180 10178 10177 10176 10174 10174 10173 10172 10172 10171 10169 10168 10167 10166 10168 10170 10169 10167 10162 10160 10162 10164 10164 10163 10165 10171 10180 10186 10189 10191 10191 10193
10227 10225 10222 10219 10216 10212 10209 10207 10206 10204 10203 10201 10198 10195 10192 10189 10187 10184 10182 10179 10177 10175 10174 10172 10171 10169 10167 10166 10165 10164 10162 10161 10160 10158 10157 10157 10157 10156 10155 10154 10152 10151 10150 10149 10150 10151 10150 10147 10143 10143 10146 10146 10145 10145 10146 10151 10159 10164 10168 10171 10172 10171
10214 10212 10209 10205 10202 10199 10196 10194 10192 10190 10188 10186 10183 10180 10177 10174 10171 10169 10166 10163 10160 10159 10157 10155 10153 10151 10150 10149 10147 10146 10145 10143 10143 10141 10141 10141 10140 10139 10138 10137 10136 10135 10134 10132 10131 10132 10133 10130 10126 10127 10129 10128 10127 10128 10130 10134 10139 10143 10146 10149 10149 10149
10200 10198 10196 10193 10190 10187 10185 10182 10179 10176 10173 10171 10168 10165 10162 10160 10157 10155 10152 10148 10146 10144 10141 10139 10137 10135 10134 10132 10131 10129 10128 10126 10126 10125 10125 10125 10124 10122 10121 10120 10119 10118 10117 10115 10112 10113 10116 10114 10110 10110 10113 10111 10110 10112 10115 10118 10121 10123 10125 10126 10125 10125
10186 10184 10182 10180 10177 10174 10171 10168 10165 10162 10159 10156 10153 10150 10148 10147 10144 10141 10138 10135 10132 10130 10127 10125 10123 10121 10119 10117 10115 10113 10111 10110 10109 10109 10109 10110 10108 10106 10105 10104 10103 10101 10099 10098 10096 10096 10100 10099 10093 10092 10095 10094 10094 10097 10100 10102 10102 10104 10105 10107 10106 10106
10172 10170 10168 10166 10163 10160 10157 10153 10150 10147 10143 10140 10137 10135 10134 10132 10130 10128 10125 10122 10119 10116 10113 10110 10109 10106 10104 10102 10100 10098 10096 10094 10093 10093 10093 10093 10093 10091 10089 10087 10087 10085 10082 10082 10082 10081 10083 10082 10077 10074 10077 10077 10076 10079 10083 10084 10086 10088 10089 10090 10090 10089
10158 10157 10154 10151 10148 10145 10142 10139 10136 10132 10129 10125 10123 10121 10119 10117 10115 10113 10111 10108 10105 10102 10099 10097 10095 10093 10090 10087 10085 10083 10081 10079 10078 10077 10076 10076 10076 10076 10073 10070 10070 10070 10068 10067 10067 10066 10066 10065 10062 10059 10059 10059 10059 10061 10065 10067 10070 10072 10072 10073 10074 10073
10145 10143 10140 10137 10134 10131 10127 10124 10122 10118 10115 10112 10110 10107 10104 10101 10099 10097 10095 10092 10090 10087 10085 10083 10081 10079 10076 10073 10070 10068 10066 10064 10063 10062 10061 10060 10059 10059 10057 10054 10053 10055 10054 10051 10051 10050 10048 10048 10048 10046 10043 10042 10043 10045 10049 10051 10053 10054 10055 10057 10057 10057
10132 10129 10126 10122 10119 10115 10112 10109 10107 10104 10102 10099 10097 10094 10090 10087 10085 10082 10079 10077 10075 10073 10071 10069 10067 10064 10061 10059 10057 10054 10052 10050 10049 10048 10046 10045 10044 10043 10041 10039 10039 10040 10040 10036 10033 10033 10031 10030 10032 10031 10028 10027 10028 10030 10033 10035 10037 10038 10040 10041 10041 10041
10118 10115 10112 10108 10104 10100 10096 10094 10092 10089 10087 10085 10082 10079 10076 10073 10070 10067 10064 10062 10060 10058 10056 10054 10052 10049 10047 10045 10043 10041 10038 10035 10035 10035 10033 10031 10030 10028 10026 10025 10025 10026 10026 10021 10017 10015 10015 10014 10015 10015 10013 10011 10013 10015 10017 10019 10021 10022 10025 10026 10025 10025
10105 10102 10098 10095 10090 10086 10083 10079 10077 10075 10073 10070 10068 10064 10061 10058 10055 10052 10049 10047 10045 10043 10041 10039 10036 10034 10032 10031 10029 10027 10024 10022 10021 10021 10019 10017 10015 10014 10014 10012 10012 10012 10011 10006 10001 9998 9998 9998 9998 9998 9998 9997 9998 9999 10001 10003 10004 10006 10008 10010 10010 10009
10093 10089 10085 10081 10077 10073 10070 10066 10064 10063 10060 10057 10053 10050 10047 10044 10040 10037 10035 10032 10031 10029 10026 10024 10021 10018 10017 10016 10015 10013 10011 10009 10008 10006 10004 10002 10001 10002 10002 10000 9999 9999 9997 9992 9987 9983 9981 9982 9982 9982 9983 9984 9985 9984 9985 9987 9988 9989 9991 9993 9994 9993
10081 10076 10072 10068 10063 10059 10056 10053 10051 10050 10047 10043 10039 10036 10033 10030 10026 10023 10020 10018 10017 10015 10012 10010 10007 10004 10003 10002 10000 9999 9997 9995 9994 9992 9989 9988 9988 9990 9990 9987 9986 9986 9983 9979 9974 9969 9966 9966 9966 9967 9968 9970 9971 9970 9970 9972 9973 9973 9975 9977 9978 9977
10069 10064 10059 10055 10050 10047 10044 10041 10039 10037 10033 10029 10026 10022 10019 10016 10012 10009 10006 10004 10003 10001 9999 9996 9993 9991 9990 9988 9986 9985 9984 9982 9981 9978 9976 9976 9977 9977 9976 9975 9974 9972 9970 9966 9961 9957 9954 9952 9951 9952 9954 9956 9957 9956 9956 9957 9957 9957 9959 9961 9962 9962
10056 10051 10047 10042 10038 10035 10032 10029 10027 10024 10020 10016 10012 10009 10006 10002 9999 9996 9993 9990 9989 9987 9985 9983 9980 9978 9976 9975 9973 9971 9970 9968 9967 9965 9964 9964 9964 9963 9962 9962 9961 9959 9957 9953 9948 9944 9942 9939 9937 9939 9941 9943 9943 9943 9943 9943 9943 9943 9944 9945 9947 9948
10042 10038 10034 10030 10026 10023 10019 10017 10015 10012 10008 10003 10000 9997 9993 9990 9987 9983 9980 9978 9977 9975 9972 9969 9967 9965 9963 9962 9960 9958 9956 9954 9953 9952 9951 9951 9951 9950 9949 9948 9948 9945 9943 9940 9935 9932 9929 9926 9925 9927 9929 9929 9929 9929 9929 9929 9929 9929 9930 9930 9931 9933
10027 10024 10020 10017 10014 10011 10007 10004 10002 10000 9996 9991 9988 9985 9981 9978 9975 9972 9969 9967 9965 9963 9960 9957 9955 9953 9951 9949 9947 9945 9943 9940 9939 9939 9938 9936 9936 9937 9937 9936 9935 9932 9929 9926 9922 9920 9917 9914 9912 9914 9916 9916 9915 9915 9916 9915 9915 9916 9916 9915 9916 9917
10014 10010 10007 10004 10002 9998 9994 9991 9989 9987 9983 9978 9975 9973 9970 9967 9964 9960 9957 9955 9953 9951 9948 9946 9943 9941 9939 9938 9936 9933 9930 9927 9925 9926 9926 9924 9922 9922 9923 9925 9923 9920 9917 9914 9910 9907 9905 9903 9901 9901 9902 9902 9902 9901 9901 9901 9901 9902 9902 9903 9903 9903
9999 9996 9993 9991 9988 9985 9981 9978 9976 9974 9970 9965 9963 9961 9958 9956 9953 9949 9946 9943 9941 9939 9937 9934 9932 9930 9928 9926 9924 9922 9920 9916 9911 9909 9911 9913 9912 9909 9908 9910 9911 9909 9905 9903 9899 9896 9893 9891 9891 9891 9890 9889 9888 9887 9887 9886 9886 9887 9888 9890 9890 9889
9984 9981 9979 9977 9975 9972 9968 9966 9965 9962 9956 9953 9951 9949 9946 9944 9942 9939 9935 9932 9930 9927 9925 9923 9921 9920 9917 9915 9913 9911 9909 9907 9902 9897 9894 9897 9900 9899 9898 9897 9898 9896 9893 9891 9889 9887 9883 9880 9880 9880 9879 9878 9876 9875 9874 9872 9871 9872 9874 9875 9876 9875
9971 9969 9966 9964 9962 9959 9956 9954 9953 9949 9944 9941 9939 9937 9934 9932 9930 9928 9925 9922 9919 9916 9913 9911 9910 9909 9907 9904 9902 9899 9897 9896 9894 9890 9884 9880 9882 9885 9887 9887 9887 9885 9881 9878 9876 9876 9875 9873 9870 9869 9868 9867 9866 9864 9863 9861 9858 9858 9860 9861 9862 9861
9960 9957 9955 9953 9951 9948 9944 9943 9941 9937 9933 9930 9927 9925 9923 9921 9919 9917 9914 9912 9909 9906 9903 9900 9899 9898 9896 9893 9890 9888 9886 9884 9883 9881 9877 9872 9869 9868 9870 9873 9875 9875 9873 9869 9865 9863 9864 9863 9862 9860 9859 9857 9855 9853 9851 9850 9849 9847 9846 9848 9849 9849
9949 9946 9944 9942 9939 9936 9933 9931 9929 9925 9922 9918 9916 9913 9911 9909 9908 9905 9903 9901 9899 9896 9893 9890 9889 9888 9885 9882 9879 9877 9875 9873 9871 9869 9868 9865 9862 9859 9857 9857 9858 9860 9861 9860 9857 9854 9852 9852 9852 9851 9850 9849 9846 9843 9840 9838 9838 9837 9836 9836 9837 9837
9938 9936 9933 9931 9928 9924 9921 9919 9917 9914 9910 9907 9904 9902 9900 9898 9896 9893 9891 9889 9887 9885 9882 9880 9879 9878 9875 9871 9868 9866 9864 9863 9861 9859 9857 9856 9854 9852 9849 9847 9845 9843 9843 9845 9846 9845 9843 9841 9841 9841 9840 9838 9837 9835 9831 9828 9826 9826 9826 9826 9826 9825